Location: Fyfield
(51.7333°N, 0.2667°E)
Time: 15:23:02
(UTC+00:00)

Daily predictions for brighter satellites

Satellite Brightness Start Highest point End
(mag) Time Altitude Azimuth Time Altitude Azimuth Time Altitude Azimuth
NOAA 12 4.3 16:17:51 10° SE 16:22:59 52° ENE 16:28:08 10° N
Cosmos 1898 Rocket 3.5 16:18:36 10° NNW 16:23:53 71° ENE 16:29:05 10° SSE
Cosmos 2369 3.9 16:18:51 10° NNW 16:24:31 55° NE 16:30:07 10° SE
NOSS 2-1 (E) 3.9 16:22:25 10° WSW 16:25:29 39° NW 16:28:53 10° NE
Meteor PRIRODA 3.8 16:23:17 10° SE 16:26:46 47° ENE 16:30:17 10° N
USA 305 3.0 16:23:27 10° W 16:27:41 63° N 16:31:54 10° E
Cosmos 1933 4.4 16:25:09 10° SSE 16:28:33 27° E 16:31:58 10° NNE
NOSS 2-2 (C) 4.2 16:24:30 10° NW 16:29:15 69° NE 16:35:55 10° SE
Cosmos 1818 4.1 16:25:03 10° NW 16:30:11 38° NNE 16:35:17 10° E
Cosmos 2034 Rocket 4.1 16:25:10 10° S 16:31:10 58° E 16:37:12 10° NNE
SL-16 R/B 3.3 16:26:58 10° NNW 16:31:28 23° NE 16:35:57 10° E
FengYun 1-2 T 4.4 16:26:11 10° SE 16:31:34 52° ENE 16:36:55 10° N
Iridium 2 4.3 16:28:05 10° NNW 16:31:49 59° W 16:35:28 10° S
Cosmos 2237 Rocket 4.3 16:30:39 10° NNW 16:31:53 11° N 16:33:08 10° N
CZ-4B R/B 2.9 16:28:08 10° SSE 16:31:59 53° ENE 16:35:40 10° N
Cosmos 1408 Rocket 3.8 16:29:58 10° NNW 16:34:21 76° W 16:38:43 10° S
ADEOS 3.9 16:30:52 10° S 16:36:05 76° WSW 16:41:21 10° NNW
Cosmos 2082 Rocket 3.3 16:33:29 10° SSE 16:38:02 25° ESE 16:42:35 10° NE
USA 267 4.0 16:32:45 10° ENE 16:38:52 40° SE 16:44:57 10° SSW
SMAP 3.3 16:38:05 10° SE 16:42:33 47° ENE 16:47:02 10° N
Cosmos 1743 Rocket 3.5 16:40:09 10° N 16:44:30 78° E 16:48:50 10° SSE
Cosmos 2333 Rocket 4.0 16:42:49 10° NNW 16:45:57 15° NNE 16:49:04 10° NE
Meteor 1-25 Rocket 4.2 16:40:28 10° N 16:46:03 72° ENE 16:51:40 10° SSE
Cosmos 2278 3.9 16:42:11 10° NNW 16:47:45 49° NE 16:53:16 10° SE
Cosmos 1763 Rocket 3.5 16:43:29 10° SSW 16:48:30 67° ESE 16:53:37 10° NNE
Cosmos 2026 Rocket 4.0 16:42:48 10° N 16:48:51 55° ENE 16:54:47 10° SSE
ARGOS 4.1 16:45:11 10° ESE 16:49:28 25° ENE 16:53:45 10° N
Cosmos 1602 3.8 16:45:40 10° N 16:49:30 56° ENE 16:53:18 10° SSE
Cosmos 1634 Rocket 4.4 16:44:13 10° SSE 16:50:04 41° E 16:55:56 10° NNE
SL-16 R/B 4.3 16:49:58 10° NW 16:52:13 12° NNW 16:54:27 10° N
Cosmos 44 Rocket 3.7 16:47:40 10° NW 16:52:27 43° NE 16:57:04 10° ESE
CZ-4B DEB 4.4 16:47:20 10° SE 16:52:37 50° ENE 16:57:55 10° N
SJ 16-02 4.4 16:50:00 10° NW 16:52:48 17° W 16:55:36 10° SW
Cosmos 2195 Rocket 4.5 16:46:49 10° N 16:52:58 67° ENE 16:59:09 10° SSE
SeaSat 1 3.4 16:50:27 10° NNE 16:55:07 43° NW 16:59:46 10° WSW
Cosmos 1833 Rocket 2.8 16:49:50 10° SSW 16:55:23 64° ESE 17:00:58 10° NE
Cosmos 1666 Rocket 4.2 16:51:39 10° N 16:55:42 32° ENE 16:59:40 10° SE
Cosmos 841 Rocket 4.0 16:52:14 10° S 16:56:58 38° ESE 17:01:42 10° NE
CZ-2C R/B 3.0 16:52:43 10° SSE 16:57:34 79° WSW 17:02:21 10° NNW
Okean O Rocket 2.7 16:55:54 10° ESE 16:59:22 23° ENE 17:02:51 10° N
USA 306 3.0 16:55:45 10° WNW 16:59:59 64° N 17:03:36 14° E
Cosmos 1937 Rocket 3.7 16:55:19 10° NNW 17:00:41 83° WSW 17:06:00 10° SSE
Cosmos 1809 Rocket 4.4 16:54:52 10° N 17:01:00 72° ENE 17:07:03 10° SSE
Cosmos 2219 Rocket 3.9 16:59:35 10° N 17:02:37 14° NNE 17:04:47 12° NE
H-2A R/B 2.3 16:58:02 10° SE 17:02:49 41° ENE 17:07:30 10° N
ISS -2.4 17:00:02 10° W 17:03:14 39° SSW 17:06:26 10° SE
Cosmos 1939 Rocket 2.8 16:59:51 10° SSE 17:03:57 76° ENE 17:08:00 10° N
COSMOS 2406 3.3 16:58:55 10° SSW 17:04:33 60° ESE 17:10:10 10° NE
ATLAS 2AS CENTAUR R/B 3.9 16:57:58 10° WNW 17:04:51 34° N 17:10:36 13° NE
Cosmos 372 Rocket 3.9 17:00:14 10° NNW 17:05:30 75° ENE 17:10:45 10° SSE
Cosmos 1606 4.2 17:02:10 10° SW 17:05:40 36° WNW 17:09:14 10° N
Cosmos 1125 Rocket 4.3 17:02:06 10° N 17:06:42 30° NE 17:11:18 10° ESE
CZ-2C R/B 3.7 17:02:59 11° NE 17:06:51 22° E 17:10:50 10° SE
Cosmos 1500 3.1 17:05:41 10° N 17:09:24 61° ENE 17:13:05 10° SSE
Cosmos 1500 Rocket 4.4 17:07:50 10° NNW 17:12:11 55° W 17:16:29 10° S
USA 234 3.4 17:08:01 10° SE 17:14:34 79° SSW 17:21:08 10° WNW
Sich 1 2.9 17:12:41 10° N 17:17:01 84° E 17:21:20 10° SSE
Cosmos 1782 2.9 17:13:33 10° S 17:17:28 56° E 17:21:23 10° NNE
Cosmos 2221 3.9 17:13:45 10° SW 17:17:46 38° WNW 17:21:51 10° N
SL-08 R/B 3.7 17:13:48 10° N 17:18:30 64° WNW 17:23:04 10° SSW
CZ-2D R/B 3.3 17:15:37 10° SSE 17:19:20 53° ENE 17:23:05 10° N
USA 307 2.9 17:15:24 10° WNW 17:19:39 66° N 17:22:25 21° E
CZ-4B R/B 3.3 17:16:42 10° SE 17:21:50 47° ENE 17:26:56 10° N
ATLAS 5 CENTAUR R/B 2.7 17:14:29 10° NW 17:24:09 58° NNE 17:26:27 21° E
Cosmos 1805 Rocket 3.9 17:20:02 10° NNW 17:24:21 67° W 17:28:38 10° S
NOAA 6 4.2 17:19:45 10° SSE 17:24:54 79° WSW 17:30:03 10° NNW
SL-24 R/B - RUBIN 2 4.5 17:22:51 10° NW 17:27:17 51° SW 17:31:29 10° SSE
PAYLOAD B 4.2 17:22:26 10° SSE 17:28:01 72° ENE 17:33:36 10° NNW
ERBS 3.3 17:26:59 10° WNW 17:29:54 31° N 17:30:53 25° NNE
deb Chang Zheng 4 3.8 17:27:45 10° SE 17:31:52 45° ENE 17:36:00 10° N
Cosmos 2360 Rocket 3.1 17:30:39 10° NNW 17:35:33 29° NE 17:37:21 24° ENE
Lacrosse 5 rocket 1.2 17:32:26 10° WNW 17:36:20 88° SSW 17:39:14 19° ESE
Cosmos 540 Rocket 3.4 17:31:27 10° SSW 17:36:34 86° WNW 17:41:13 13° NNE
H-2A R/B 4.4 17:40:45 14° NNE 17:40:45 14° NNE 17:41:30 10° N
Cosmos 1666 2.5 17:34:47 10° N 17:38:30 72° ENE 17:42:13 10° SSE
ATLAS CENTAUR R/B 3.5 17:35:36 10° WNW 17:38:46 18° NNW 17:41:01 14° NNE
USA 308 2.8 17:38:01 10° WNW 17:42:17 72° NNE 17:44:08 32° E
Meteor 2-16 Rocket 4.4 17:41:48 10° N 17:47:57 85° E 17:54:06 10° S
Meteor 1-11 Rocket 3.9 17:45:38 10° N 17:51:03 46° ENE 17:56:33 10° SE
COSMOS 2428 4.2 17:47:56 10° NNW 17:51:58 19° NNE 17:52:06 19° NNE
Meteor 1-26 Rocket 4.5 17:46:02 10° SSW 17:52:03 81° WNW 17:58:09 10° NNE
COSMOS 2455 2.8 17:46:40 10° SSW 17:52:41 86° SE 17:56:40 23° NE
PSLV R/B 4.4 17:51:10 10° S 17:54:48 56° WSW 17:58:32 10° NNW
CZ-4 R/B 3.4 17:59:19 15° N 17:59:19 15° N 18:00:08 10° N
Cosmos 2322 Rocket 2.3 17:51:38 10° NNW 17:57:13 51° NE 18:00:16 26° ESE
Cosmos 1814 Rocket 3.9 17:52:46 10° SSW 17:57:58 73° ESE 18:00:57 26° NNE
Cosmos 921 Rocket 3.6 17:54:30 10° S 17:57:55 35° ESE 17:57:55 35° ESE
YAOGAN 3 4.4 17:54:44 10° SSE 17:59:03 70° ENE 18:03:25 10° N
Cosmos 1570 Rocket 3.9 17:53:54 10° S 17:59:04 66° ESE 18:01:47 28° NE
Cosmos 2298 Rocket 3.9 17:55:17 10° NNW 18:00:38 74° ENE 18:05:58 10° SSE
SL-08 RB Rocket 3.8 17:56:40 10° SE 18:01:10 54° ENE 18:05:39 10° N
COSMO-SKYMED 1 2.6 17:59:54 38° NE 18:01:15 54° E 18:05:30 10° S
Cosmos 1980 Rocket 3.4 17:56:20 10° NW 18:01:41 43° WSW 18:06:57 10° S
CZ-4C R/B 3.4 17:55:29 10° NW 18:02:30 63° SW 18:10:43 10° SSE
Cosmos 1356 Rocket 3.6 18:00:27 10° N 18:04:07 47° NE 18:04:07 47° NE
Cosmos 1633 Rocket 3.3 18:01:37 10° NNW 18:05:59 69° W 18:10:20 10° S
Cosmos 1812 2.9 18:03:46 10° SSW 18:07:36 70° W 18:09:54 23° N
USA 305 2.8 18:03:28 10° WNW 18:07:45 87° NNE 18:08:38 55° ESE
Feng Yun 1-1 Rocket 4.3 18:06:38 10° SSE 18:12:29 66° ENE 18:18:16 10° NNW
YAOGAN 1 3.4 18:14:03 35° NNE 18:14:03 35° NNE 18:16:51 10° N
Cosmos 1818 4.0 18:08:40 10° NW 18:14:06 63° SW 18:19:29 10° SSE
CZ-4 R/B 4.3 18:10:10 10° SSE 18:14:18 89° W 18:18:28 10° NNW
Cosmos 1151 Rocket 3.2 18:10:20 10° SSW 18:14:39 71° WNW 18:17:49 18° N
Cosmos 2279 Rocket 4.0 18:09:11 10° SSW 18:15:24 83° W 18:21:39 10° N
SL-16 R/B 2.1 18:10:44 10° NNW 18:16:27 82° ENE 18:21:04 16° SSE
Cosmos 2266 Rocket 3.9 18:10:16 10° N 18:16:40 76° ENE 18:23:06 10° SSE
Cosmos 2237 Rocket 4.1 18:15:30 10° N 18:17:59 15° NNE 18:17:59 15° NNE
Cosmos 2082 Rocket 2.4 18:16:00 10° SW 18:21:40 68° WNW 18:24:53 26° NNE
USA 267 3.2 18:19:25 37° ENE 18:22:19 87° NNW 18:28:52 10° WSW
Landsat 5 4.2 18:25:10 39° SSE 18:25:10 39° SSE 18:27:48 10° S
SKYMED 3 4.5 18:24:18 50° NNE 18:25:25 89° WNW 18:29:46 10° SSW
NOAA 15 4.5 18:20:32 10° SSE 18:25:46 69° ENE 18:31:02 10° NNW
ARGOS 3.4 18:23:54 10° S 18:29:18 69° WSW 18:34:43 10° NNW
Cosmos 1933 Rocket 3.7 18:26:56 10° N 18:30:32 59° N 18:30:32 59° N
GEOS 3 Rocket 3.5 18:30:35 56° ESE 18:31:40 76° NE 18:36:51 10° NW
Cosmos 2333 Rocket 3.0 18:26:39 10° NNW 18:31:05 35° NNE 18:31:05 35° NNE
Meteor 2-15 4.3 18:26:20 10° S 18:32:27 86° ESE 18:38:32 10° NNE
Cosmos 44 Rocket 4.4 18:29:22 10° NW 18:34:02 43° WSW 18:38:14 12° S
Okean O Rocket 2.3 18:31:02 10° S 18:35:24 55° W 18:39:49 10° NNW
Cosmos 2208 Rocket 4.1 18:30:24 10° SSW 18:35:50 83° WNW 18:37:42 43° NNE
Cosmos 2150 Rocket 4.3 18:31:56 10° NNW 18:37:04 64° WSW 18:42:14 10° S
Cosmos 1470 Rocket 4.2 18:32:43 10° NNW 18:37:07 57° W 18:41:29 10° S
Cosmos 1328 Rocket 4.1 18:34:13 10° SSW 18:38:36 58° WNW 18:40:29 32° N
SL-16 R/B 4.4 18:36:55 10° N 18:38:38 12° N 18:38:38 12° N
ISS -0.4 18:39:00 10° SW 18:39:21 10° SW 18:39:41 10° SW
Cosmos 1833 Rocket 4.2 18:34:44 10° WSW 18:39:44 31° NW 18:43:03 18° N
USA 306 3.1 18:35:44 10° WNW 18:39:36 67° WSW 18:39:36 67° WSW
H-2A R/B 3.7 18:37:43 10° SSW 18:42:20 34° W 18:46:54 10° NNW
IRS-1C Rocket 4.4 18:43:34 50° NNE 18:43:34 50° NNE 18:47:37 10° N
CZ-2C R/B 2.9 18:44:29 24° N 18:47:38 64° WNW 18:52:44 10° SSW
Cosmos 2219 Rocket 3.3 18:43:01 10° NNW 18:46:30 30° N 18:46:30 30° N
Cosmos 1125 Rocket 4.1 18:43:58 10° NNW 18:49:06 56° WSW 18:54:15 10° S
SKYMED 2 4.2 18:48:31 46° NNW 18:49:20 54° WNW 18:53:34 10° SSW
USA 32 4.2 18:45:11 10° S 18:49:26 60° S 18:49:26 60° S
NOSS 3-4 (A) 3.9 18:48:17 10° NW 18:54:48 53° NNE 18:55:00 53° NE
ATLAS CENTAUR R/B 2.8 18:48:29 10° W 18:54:28 50° NW 18:54:28 50° NW
NOSS 3-4 (C) 3.9 18:48:23 10° NW 18:54:53 53° NNE 18:55:05 53° NE
ATLAS 2AS CENTAUR R/B 3.4 18:50:44 10° NW 18:57:44 39° NNE 18:58:02 38° NNE
Meteor 1-27 Rocket 4.0 18:52:33 10° S 18:56:41 52° S 18:56:41 52° S
USA 307 4.0 18:55:23 10° WNW 18:58:27 43° W 18:58:27 43° W
Lacrosse 5 rocket 3.6 19:12:02 10° W 19:14:52 20° SW 19:14:52 20° SW
ATLAS CENTAUR R/B 4.1 19:16:00 10° NNW 19:17:07 14° NNW 19:17:07 14° NNW
Cosmos 2360 Rocket 2.6 19:14:26 10° NNW 19:19:09 60° WNW 19:19:09 60° WNW
COSMOS 2428 4.4 19:31:46 10° NNW 19:34:07 25° NNW 19:34:07 25° NNW
COSMOS 2455 4.2 19:34:01 10° W 19:39:21 31° NNW 19:39:49 31° NNW
Cosmos 2322 Rocket 3.6 19:35:59 10° NW 19:41:07 35° WSW 19:42:10 33° SW
SL-16 R/B 4.5 19:55:52 10° NW 19:59:54 20° W 20:03:05 13° SW
USA 267 4.0 20:06:46 46° NW 20:06:46 46° NW 20:11:31 10° W
Cosmos 2082 Rocket 4.3 20:02:43 10° W 20:06:45 20° NW 20:06:45 20° NW
Cosmos 2333 Rocket 4.2 20:10:56 10° NW 20:13:07 23° NW 20:13:07 23° NW
ATLAS 2AS CENTAUR R/B 4.4 20:42:14 10° NW 20:45:28 28° NW 20:45:28 28° NW
